Погода в Вязьме

Погода в Вязьме : погода сейчас, прогноз погоды и архив. Всё, что Вы хотите узнать о погоде в Вязьме!

Поиск расширенной информации на нашем сайте:

Полезная информация:

Другие новости

Новости СМИ2

Главная страница сайта

Новости сайта

03.07.2017

Напоминаем, что на нашем специализированном сайте Метеоцентр.Азия вы можете получить высокодетализированные автоматические прогнозы погоды по пунктам России, СНГ и мира в авиационном формате (включающие направление и скорость ветра, видимость, явления погоды, количество и форму облачности, нижнюю и верхнюю границу облачности).

Рекомендуем:

Погода в Вязьме - сегодня

Время (UTC), дата Ветер
(°,м/с) 
Видим.   Явления Облачность Т
(°С)
Тd
(°С)
f(%) Тe
(°С)
Pmin
(гПа)
dP
(гПа)
Po
(мм)
O2
(г/м3)
Тmin Tmax R s Состояние
почвы
09 15.09.19 240 (ЮЗ) 10 км    6/3 600 м верхняя 
[Sc|Ci fib]
+10.8 +6 72 +10  1017.7  -1.3  741  286           
12 15.09.19 230 (ЮЗ) 10 км    9/3 1000 м верхняя 
[Cu hum|Ci fib]
+13.5 +5.5 58 +13  1014  -3.3  739  283           
15 15.09.19 210 (ЮЗ) 10 км  в посл. час ливневой дождь  10/10 300 м кучево-дожд. 
[Cb calv]
+9.4 +7.8 90 +9  1011.3  -3  736  285         
18 15.09.19 200 (Ю) 2{17}  4000 м  в посл. час дождь  10/8 300 м средняя 
[Frnb|As op]
+9.3 +8 92 +9  1007.7  -3.5  734  284    +13.6     
21 15.09.19 220 (ЮЗ) 4000 м  {дождь}  10/8 300 м средняя 
[Frnb|As op]
+10.3 +7.3 82 +9  1004.3  -3.2  731  283           
00 16.09.19 230 (ЮЗ) 4{12}  10 км    9/8 300 м средняя 
[Sc|Ac trans]
+10.6 +7.1 79 +10  1001.8  -2.4  729  282           
03 16.09.19 240 (ЮЗ) 5{11}  10 км    8/8 300 м 
[Sc]
+9.9 +8.1 89 +9  1000.9  -0.9  729  282  +9.3       
06 16.09.19 260 (З) 5{10}  10 км  {ливн. осадки}  8/6 300 м средняя 
[Sc|Ac trans]
+11.1 +8.2 82 +10  999.7  -1.1  728  280  +9.3      влажная 
09 16.09.19 260 (З) 6{13}  10 км  {ливн. осадки}  8/8 300 м кучево-дожд. 
[Cb cap]
+12.6 +6.4 66 +12  999.3  -0.2  728  279           
12 16.09.19 250 (З) 6-11{12}  10 км  {ливн. осадки}  6/4 300 м кучево-дожд., средняя 
[Cb calv|Ac trans]
+13.9 +7.7 66 +13  999.4  0.3  728  278           
15 16.09.19 240 (ЮЗ) 5-10{13}  10 км    4/3 300 м средняя, верхняя 
[Sc|Ac trans|Ci fib]
+12.7 +7.1 69 +12  999.8  0.3  728  279         
18 16.09.19 230 (ЮЗ) 3{11}  10 км    3/0 средняя 
[Ac trans]
+9.5 +7 84 +9  1000.4  0.2  728  282    +14.5  0.5     
21 16.09.19 240 (ЮЗ) 4000 м  дымка{ливн. осадки}  4/0 средняя 
[Ac trans]
+8.7 +7.3 91 +8  1000.3  0.1  728  283           
00 17.09.19 240 (ЮЗ) 20000 м  пыльные вихри  3/0 средняя, верхняя 
[Ac trans|Ci fib]
+8.4 +6.9 90 +8  999.5  -0.9  728  283           
03 17.09.19 250 (З) 10 км    9/8 300 м средняя 
[Sc|Ac trans]
+7.9 +6.1 88 +7  999.5  -0.1  728  284  +7.8    0.3     
06 17.09.19 260 (З) 10 км    9/9 300 м 
[Sc]
+8.2 +5.5 83 +7  999.6  0.2  728  284  +7.6    0.3    мокрая 
09 17.09.19 260 (З) 10 км    10/10 300 м 
[Sc]
+8.6 +6.5 87 +7  1000.1  0.5  728  283           
12 17.09.19 250 (З) 10 км    8/8 300 м 
[Sc]
+11 +6.2 72 +11  999.8  0.1  728  281           
15 17.09.19 270 (З) 2{10}  4000 м  слаб. ливневой дождь  8/8 300 м кучево-дожд. 
[Cb cap]
+9.1 +6.7 85 +9  1000.1  0.1  728  283      0.3     
18 17.09.19 240 (ЮЗ) 10 км  {ливн. осадки}  6/6 300 м 
[Sc]
+8 +6 87 +8  1000.6  0.4  728  284    +11.8  0.3     
21 17.09.19 230 (ЮЗ) 4000 м  дымка  6/0 средняя 
[Ac trans]
+6.7 +5.5 92 +7  1000.2  -0.6  728  285           
00 18.09.19 200 (Ю) 4000 м  дымка  3/0 средняя, верхняя 
[Ac trans|Ci fib]
+4.1 +3.4 95 +5  999.5  -1  727  288           
03 18.09.19 190 (Ю) 4000 м  дымка  9/3 300 м средняя 
[Sc|Ac trans]
+4.2 +3.7 97 +5  998.6  -0.8  727  288  +3.8    0.0     
06 18.09.19 190 (Ю) 4000 м  дымка  10/0 средняя 
[Ac und]
+6.6 +5.9 95 +8  997.8  -0.5  726  285  +3.8        влажная 
09 18.09.19 100 (В) 10 км    9/9 600 м 
[Cu Sc]
+9.3 +5.9 79 +10  997.4  0.1  726  282           
Время (UTC), дата Ветер
(°,м/с) 
Видим.   Явления Облачность Т
(°С)
Тd
(°С)
f(%) Тe
(°С)
Pmin
(гПа)
dP
(гПа)
Po
(мм)
O2
(г/м3)
Тmin Tmax R s Состояние
почвы

Для получения пояснительной информации подведите курсор к названию столбца.

ПОГОДА в Вязьме - архив

Всё, что Вы хотите узнать о погоде в Вязьме - удобно и подробно!

Выберите нужную дату (начиная с 1 января 2018* года) и нажмите кнопку "Найти".
Будут отображены архивные сводки погоды по пункту Вязьма, начиная с указанной даты.


Отображать данные в формате CSV (для использования в таблицах Excel)


Внимание! Наш архив погоды предназначен исключительно для личного некоммерческого использования в познавательных целях. Если Вам необходимы официальные справки о состоянии погоды (для производственных, юридических, коммерческих и т.п. целей), обращайтесь в органы Росгидромета.

*Примечание: данная дата относится к архиву по метеостанциям СССР (Россия, СНГ, Балтия).
Архив по метеостанциям Зарубежной Европы и Азии (кроме Китая) хранится 10 дней, по другим регионам земного шара (Китай, Африка, Америка, Австралия, Океания) - 1 день.

Вязьма - район местоположения метеостанции


Название, широта, долгота, высота метеостанции:
Вязьма 55.2°ш. 34.4°д. 251 м над ур. моря [Российская Федерация]

Дополнительная информация

В oтличие oт бoльшинства пoгoдных сайтoв мы публикуем пoдрoбную метеoинфoрмацию в детальнoм прoфессиoнальнoм фoрмате.

Характеристики температуры и влажнoсти вoздуха измеряются на высoте 2 м в тени вдали oт зданий и деревьев.
Скoрoсть ветра измеряется на высoте 10 м (на урoвне рoста челoвека скoрoсть ветра ниже в 1.5-2 раза). Если метеoстанция нахoдится в гoрoде или в лесу, тo скoрoсть ветра занижена на 2-4 м/с пo сравнению с oткрытым местoм. Скoрoсть ветра над акватoриями крупных рек и oзёр, а также на вершинах хoлмoв на 2-5 м/с выше, чем в oбычных услoвиях.
Атмoсфернoе давление в разных тoчках местнoсти мoжет значительнo oтличаться oт давления на метеoстанции, в зависимoсти oт услoвий рельефа (при пoдъёме на 10 м давление пoнижается примернo на 1 мм рт.ст.).